Regional Weather Roundup
Issued by NWS

Home | Current Version | Previous Version | Graphics & Text | Print | Product List | Glossary On
Versions: 1 2 3 4 5 6 7 8 9 10 11 12 13 14 15 16 17 18 19 20 21 22 23 24 25 26 27 28 29 30 31 32 33 34 35 36 37 38 39 40 41 42 43 44 45 46 47 48 49 50
000
ASUS43 KOAX 292102
RWRNE

WEATHER ROUNDUP FOR NEBRASKA
NATIONAL WEATHER SERVICE OMAHA NE
400 PM CDT SUN MAY 29 2016

NOTES: SATELLITE DATA IS BEING USED TO AUGMENT CLOUD COVER ABOVE
       12000 FEET.
       "FAIR" INDICATES FEW OR NO CLOUDS BELOW 12,000 FEET WITH NO
       SIGNIFICANT WEATHER AND/OR OBSTRUCTIONS TO VISIBILITY.

  * THESE STATIONS DO NOT REPORT WEATHER SUCH AS RAIN...SNOW OR FOG.

NEZ001>004-019>022-054>056-292200-
NEBRASKA PANHANDLE

CITY           SKY/WX    TMP DP  RH WIND       PRES   REMARKS
SCOTTSBLUFF    MOSUNNY   75  44  33 S6        30.05F
ALLIANCE       SUNNY     78  44  29 SW10G17   30.04F
CHADRON        SUNNY     82  45  27 VRB7      30.00F
SIDNEY         SUNNY     79  40  24 SW8       30.08F
$$

NEZ057>060-069>072-079>082-292200-
SOUTHWEST NEBRASKA

CITY           SKY/WX    TMP DP  RH WIND       PRES   REMARKS
NORTH PLATTE   SUNNY     82  56  40 SE7       30.02F
IMPERIAL       MOSUNNY   80  52  37 S12       30.01F
LEXINGTON      SUNNY     81  57  43 S5        30.03F
MCCOOK         SUNNY     84  54  35 VRB6      29.99F
$$

NEZ005>010-023>029-035>040-094-292200-
NORTH CENTRAL NEBRASKA

CITY           SKY/WX    TMP DP  RH WIND       PRES   REMARKS
VALENTINE      SUNNY     78  52  40 SE9       30.03F
AINSWORTH      SUNNY     77  53  43 S8G16     30.05F
BROKEN BOW     SUNNY     80  57  45 SE9       30.03F
ORD            SUNNY     81  54  39 E7        30.03F
$$

NEZ041-046>049-061>064-073>077-083>087-292200-
SOUTH CENTRAL NEBRASKA

CITY           SKY/WX    TMP DP  RH WIND       PRES   REMARKS
GRAND ISLAND   SUNNY     81  56  42 E7        30.04F
HASTINGS       PTSUNNY   81  59  47 CALM      30.01F
KEARNEY *      SUNNY     84  54  34 SW7       30.03F
YORK           SUNNY     81  55  41 NE3       30.05F
$$

NEZ011>018-030>034-042>045-292200-
NORTHEAST NEBRASKA

CITY           SKY/WX    TMP DP  RH WIND       PRES   REMARKS
NORFOLK        SUNNY     79  55  43 SE3       30.03F
ALBION         SUNNY     80  53  38 CALM      30.04F
BLAIR          SUNNY     82  58  44 S7        30.04F
FREMONT        SUNNY     82  58  43 CALM      30.04F
TEKAMAH          N/A    N/A N/A N/A MISG      30.02F
$$

NEZ050>053-065>068-078-088>093-292200-
SOUTHEAST NEBRASKA

CITY           SKY/WX    TMP DP  RH WIND       PRES   REMARKS
LINCOLN        SUNNY     86  54  33 SW8       30.04F
OMAHA EPPLEY   MOSUNNY   85  56  37 VRB6      30.03F
FALLS CITY     SUNNY     85  61  44 SW10      30.04F
PLATTSMOUTH    SUNNY     86  60  40 NW6       30.04F
$$

NEZ044-045-051>053-067-292200-
OMAHA AREA

CITY           SKY/WX    TMP DP  RH WIND       PRES   REMARKS
OMAHA EPPLEY   MOSUNNY   85  56  37 VRB6      30.03F
BLAIR          SUNNY     82  58  44 S7        30.04F
FREMONT        SUNNY     82  58  43 CALM      30.04F
OFFUTT AFB     SUNNY     84  59  43 VRB3      30.03F
PLATTSMOUTH    SUNNY     86  60  40 NW6       30.04F
$$




USA.gov is the U.S. government's official web portal to all federal, state and local government web resources and services.